����,���ϕ���(m/s),���ϕ���,�ő�u�ԕ���(m/s),�ő啗��������,�C��(��),���x(%),10���Ԉړ��ώZ�J��(mm),1���Ԉړ��ώZ�J��(mm),���J��(mm),�݌v�J��(mm)
2022-04-04T00:00:00+09:00,1.2,��,2.5,���쓌,9.3,74.5,0,0,0,0
2022-04-04T00:01:00+09:00,1.2,��,2.5,���쓌,9.3,74.4,0,0,0,0
2022-04-04T00:02:00+09:00,1.1,��,2.5,���쓌,9.2,74.2,0,0,0,0
2022-04-04T00:03:00+09:00,1,��,2.3,���쓌,9.2,74.2,0,0,0,0
2022-04-04T00:04:00+09:00,1,��,2.3,���쓌,9.2,74.3,0,0,0,0
2022-04-04T00:05:00+09:00,0.9,��,2.3,���쓌,9.2,74.3,0,0,0,0
2022-04-04T00:06:00+09:00,0.9,��,2.3,���쓌,9.2,74.4,0,0,0,0
2022-04-04T00:07:00+09:00,0.8,��,2.3,���쓌,9.3,74.5,0,0,0,0
2022-04-04T00:08:00+09:00,0.8,��,2.3,���쓌,9.3,74.5,0,0,0,0
2022-04-04T00:09:00+09:00,0.8,��,2.3,���쓌,9.2,74.5,0,0,0,0
2022-04-04T00:10:00+09:00,0.8,��,2.3,���쓌,9.2,74.5,0,0,0,0
2022-04-04T00:11:00+09:00,0.6,��,2,��,9.2,74.4,0,0,0,0
2022-04-04T00:12:00+09:00,0.6,��,1.4,���k��,9.2,74.5,0,0,0,0
2022-04-04T00:13:00+09:00,0.5,��,1.4,���k��,9.1,74.5,0,0,0,0
2022-04-04T00:14:00+09:00,0.5,��,1.4,���k��,9.2,74.7,0,0,0,0
2022-04-04T00:15:00+09:00,0.5,��,1.4,���k��,9.2,74.8,0,0,0,0
2022-04-04T00:16:00+09:00,0.6,��,1.6,��,9.2,74.8,0,0,0,0
2022-04-04T00:17:00+09:00,0.6,��,1.6,��,9.2,74.9,0,0,0,0
2022-04-04T00:18:00+09:00,0.6,��,1.6,��,9.2,74.8,0,0,0,0
2022-04-04T00:19:00+09:00,0.6,��,1.6,��,9.2,74.8,0,0,0,0
2022-04-04T00:20:00+09:00,0.7,��,1.7,�쓌,9.2,74.7,0,0,0,0
2022-04-04T00:21:00+09:00,0.8,��,1.9,���k��,9.2,74.8,0,0,0,0
2022-04-04T00:22:00+09:00,0.9,��,2.1,���k��,9.2,74.8,0,0,0,0
2022-04-04T00:23:00+09:00,1,��,2.1,���k��,9.2,74.7,0,0,0,0
2022-04-04T00:24:00+09:00,1,��,2.1,���k��,9.1,74.8,0,0,0,0
2022-04-04T00:25:00+09:00,1,��,2.1,���k��,9.1,75,0,0,0,0
2022-04-04T00:26:00+09:00,1,��,2.1,���k��,9.1,75.2,0,0,0,0
2022-04-04T00:27:00+09:00,1,��,2.1,���k��,9.1,75.3,0,0,0,0
2022-04-04T00:28:00+09:00,1.1,���k��,2.1,���k��,9.2,75.3,0,0,0,0
2022-04-04T00:29:00+09:00,1.1,���k��,2.1,���k��,9.2,75.2,0,0,0,0
2022-04-04T00:30:00+09:00,1.2,���k��,2.1,���k��,9.2,75.2,0,0,0,0
2022-04-04T00:31:00+09:00,1.2,���k��,2.3,���쓌,9.2,75.1,0,0,0,0
2022-04-04T00:32:00+09:00,1.3,��,3,��,9.2,74.9,0,0,0,0
2022-04-04T00:33:00+09:00,1.4,���k��,3,��,9.2,74.8,0,0,0,0
2022-04-04T00:34:00+09:00,1.5,���k��,3,��,9.2,74.8,0,0,0,0
2022-04-04T00:35:00+09:00,1.6,���k��,3,��,9.2,74.8,0,0,0,0
2022-04-04T00:36:00+09:00,1.6,���k��,3,��,9.2,74.8,0,0,0,0
2022-04-04T00:37:00+09:00,1.6,���k��,3,��,9.2,74.8,0,0,0,0
2022-04-04T00:38:00+09:00,1.6,���k��,3,��,9.1,74.8,0,0,0,0
2022-04-04T00:39:00+09:00,1.6,���k��,3,��,9.2,74.9,0,0,0,0
2022-04-04T00:40:00+09:00,1.6,���k��,3,��,9.2,74.9,0,0,0,0
2022-04-04T00:41:00+09:00,1.5,���k��,3,��,9.2,75,0,0,0,0
2022-04-04T00:42:00+09:00,1.4,���k��,2.8,�k�k��,9.1,75,0,0,0,0
2022-04-04T00:43:00+09:00,1.4,���k��,2.5,���k��,9.2,75.1,0,0,0,0
2022-04-04T00:44:00+09:00,1.3,���k��,2.5,���k��,9.2,75.2,0,0,0,0
2022-04-04T00:45:00+09:00,1.2,���k��,2.5,���k��,9.2,75,0,0,0,0
2022-04-04T00:46:00+09:00,1.3,���k��,2.5,���k��,9.2,74.9,0,0,0,0
2022-04-04T00:47:00+09:00,1.3,���k��,2.5,���k��,9.1,74.9,0,0,0,0
2022-04-04T00:48:00+09:00,1.3,���k��,2.5,���k��,9.1,74.9,0,0,0,0
2022-04-04T00:49:00+09:00,1.4,���k��,2.5,���k��,9.1,75,0,0,0,0
2022-04-04T00:50:00+09:00,1.4,���k��,2.5,���k��,9.2,74.9,0,0,0,0
2022-04-04T00:51:00+09:00,1.5,���k��,3.3,���k��,9.2,74.8,0,0,0,0
2022-04-04T00:52:00+09:00,1.4,���k��,3.3,���k��,9.2,74.7,0,0,0,0
2022-04-04T00:53:00+09:00,1.4,���k��,3.3,���k��,9.2,74.6,0,0,0,0
2022-04-04T00:54:00+09:00,1.5,���k��,5.1,���k��,9.2,74.5,0,0,0,0
2022-04-04T00:55:00+09:00,1.7,���k��,5.1,���k��,9.2,74.3,0,0,0,0
2022-04-04T00:56:00+09:00,1.8,���k��,5.1,���k��,9.2,74.2,0,0,0,0
2022-04-04T00:57:00+09:00,1.9,���k��,5.1,���k��,9.2,74.3,0,0,0,0
2022-04-04T00:58:00+09:00,1.8,���k��,5.1,���k��,9.2,74.3,0,0,0,0
2022-04-04T00:59:00+09:00,1.8,���k��,5.1,���k��,9.2,74.3,0,0,0,0
2022-04-04T01:00:00+09:00,1.9,���k��,5.1,���k��,9.1,74.3,0,0,0,0
2022-04-04T01:01:00+09:00,2,���k��,5.1,���k��,9.1,74.5,0,0,0,0
2022-04-04T01:02:00+09:00,2,���k��,5.1,���k��,9.1,74.6,0,0,0,0
2022-04-04T01:03:00+09:00,2.2,�k��,5.1,���k��,9.1,74.5,0,0,0,0
2022-04-04T01:04:00+09:00,2.1,�k��,4.4,���k��,9.2,74.2,0,0,0,0
2022-04-04T01:05:00+09:00,2,�k��,4.3,�k��,9.2,74,0,0,0,0
2022-04-04T01:06:00+09:00,1.8,�k��,4.3,�k��,9.2,73.8,0,0,0,0
2022-04-04T01:07:00+09:00,1.9,�k��,4.3,�k��,9.2,73.8,0,0,0,0
2022-04-04T01:08:00+09:00,1.9,�k��,4.3,�k��,9.1,73.8,0,0,0,0
2022-04-04T01:09:00+09:00,2,�k��,4.3,�k��,9.1,73.7,0,0,0,0
2022-04-04T01:10:00+09:00,2,�k��,4.3,�k��,9.1,73.5,0,0,0,0
2022-04-04T01:11:00+09:00,2.1,�k��,4.3,�k��,9.1,73.4,0,0,0,0
2022-04-04T01:12:00+09:00,2.2,�k��,4.2,�k��,9.1,73.2,0,0,0,0
2022-04-04T01:13:00+09:00,2.1,�k��,4.2,�k��,9.1,73.1,0,0,0,0
2022-04-04T01:14:00+09:00,2.1,�k��,4.2,�k��,9.1,73.1,0,0,0,0
2022-04-04T01:15:00+09:00,2.1,�k��,4.2,�k��,9.1,73.1,0,0,0,0
2022-04-04T01:16:00+09:00,2.4,�k��,6.1,�k��,9.1,73.1,0,0,0,0
2022-04-04T01:17:00+09:00,2.5,�k��,6.1,�k��,9.1,73,0,0,0,0
2022-04-04T01:18:00+09:00,2.6,�k��,6.1,�k��,9.1,73.1,0,0,0,0
2022-04-04T01:19:00+09:00,2.6,�k��,6.1,�k��,9.1,73.1,0,0,0,0
2022-04-04T01:20:00+09:00,2.5,�k��,6.1,�k��,9,73,0,0,0,0
2022-04-04T01:21:00+09:00,2.4,�k��,6.1,�k��,8.9,73.1,0,0,0,0
2022-04-04T01:22:00+09:00,2.2,�k��,6.1,�k��,8.9,73.5,0,0,0,0
2022-04-04T01:23:00+09:00,2.1,�k��,6.1,�k��,8.9,73.7,0,0,0,0
2022-04-04T01:24:00+09:00,2,�k��,6.1,�k��,8.8,73.9,0,0,0,0
2022-04-04T01:25:00+09:00,1.9,�k��,6.1,�k��,8.9,74.3,0,0,0,0
2022-04-04T01:26:00+09:00,1.7,�k��,4.7,�k��,8.9,74.4,0,0,0,0
2022-04-04T01:27:00+09:00,1.4,�k��,4,���k��,8.9,74.4,0,0,0,0
2022-04-04T01:28:00+09:00,1.3,�k��,3.3,�k��,9,74.3,0,0,0,0
2022-04-04T01:29:00+09:00,1.4,�k��,3.4,�k��,9,74.1,0,0,0,0
2022-04-04T01:30:00+09:00,1.4,���k��,3.4,�k��,9,73.7,0,0,0,0
2022-04-04T01:31:00+09:00,1.3,���k��,3.4,�k��,9,73.5,0,0,0,0
2022-04-04T01:32:00+09:00,1.4,���k��,3.4,�k��,8.9,73.3,0,0,0,0
2022-04-04T01:33:00+09:00,1.5,���k��,3.4,�k��,8.9,73.2,0,0,0,0
2022-04-04T01:34:00+09:00,1.6,���k��,3.4,�k��,8.9,73.3,0,0,0,0
2022-04-04T01:35:00+09:00,1.6,���k��,3.4,�k��,8.9,73.3,0,0,0,0
2022-04-04T01:36:00+09:00,1.5,���k��,3.4,�k��,9.1,73.7,0,0,0,0
2022-04-04T01:37:00+09:00,1.5,���k��,3.4,�k��,8.9,73,0,0,0,0
2022-04-04T01:38:00+09:00,1.3,���k��,3.4,�k��,8.8,73,0,0,0,0
2022-04-04T01:39:00+09:00,1.1,���k��,2.9,�k��,8.8,73.1,0,0,0,0
2022-04-04T01:40:00+09:00,1,���k��,2.9,�k��,8.7,73.4,0,0,0,0
2022-04-04T01:41:00+09:00,1,���k��,2.9,�k��,8.9,74,0,0,0,0
2022-04-04T01:42:00+09:00,0.9,���k��,2.9,�k��,8.9,73.9,0,0,0,0
2022-04-04T01:43:00+09:00,0.8,���k��,2.2,�k��,8.8,73.4,0,0,0,0
2022-04-04T01:44:00+09:00,0.7,���k��,2.2,�k��,8.7,73.4,0,0,0,0
2022-04-04T01:45:00+09:00,0.7,���k��,2.2,�k��,8.8,73.5,0,0,0,0
2022-04-04T01:46:00+09:00,0.8,���k��,2.2,�k��,8.8,73.5,0,0,0,0
2022-04-04T01:47:00+09:00,0.8,���k��,2.2,�k��,8.8,73.5,0,0,0,0
2022-04-04T01:48:00+09:00,0.8,���k��,2.2,�k��,8.7,73.2,0,0,0,0
2022-04-04T01:49:00+09:00,0.8,���k��,2.2,�k��,8.4,73.1,0,0,0,0
2022-04-04T01:50:00+09:00,0.8,���k��,2.2,�k��,8.4,73.9,0,0,0,0
2022-04-04T01:51:00+09:00,1,���k��,3.4,�k�k��,8.6,75,0,0,0,0
2022-04-04T01:52:00+09:00,1,���k��,3.4,�k�k��,8.5,74.8,0,0,0,0
2022-04-04T01:53:00+09:00,1,��,3.4,�k�k��,8.2,74.3,0,0,0,0
2022-04-04T01:54:00+09:00,1.1,��,3.4,�k�k��,8.4,75.1,0,0,0,0
2022-04-04T01:55:00+09:00,1.2,��,3.4,�k�k��,8.5,75.8,0,0,0,0
2022-04-04T01:56:00+09:00,1.2,��,3.4,�k�k��,8.5,75.5,0,0,0,0
2022-04-04T01:57:00+09:00,1.2,��,3.4,�k�k��,8.4,75.1,0,0,0,0
2022-04-04T01:58:00+09:00,1.4,��,3.4,�k�k��,8.4,75.6,0,0,0,0
2022-04-04T01:59:00+09:00,1.6,���k��,3.4,�k�k��,8.5,75.5,0,0,0,0
2022-04-04T02:00:00+09:00,1.8,���k��,4,�k��,8.5,75.2,0,0,0,0
2022-04-04T02:01:00+09:00,1.8,���k��,4,�k��,8.6,74.9,0,0,0,0
2022-04-04T02:02:00+09:00,2,���k��,4,�k��,8.6,74.3,0,0,0,0
2022-04-04T02:03:00+09:00,2,���k��,4,�k��,8.6,73.7,0,0,0,0
2022-04-04T02:04:00+09:00,2,���k��,4,�k��,8.5,73.6,0,0,0,0
2022-04-04T02:05:00+09:00,2,���k��,4,�k��,8.5,73.7,0,0,0,0
2022-04-04T02:06:00+09:00,2,���k��,4,�k��,8.6,73.9,0,0,0,0
2022-04-04T02:07:00+09:00,2,���k��,4,�k��,8.6,73.7,0,0,0,0
2022-04-04T02:08:00+09:00,1.9,���k��,4,�k��,8.4,73.4,0,0,0,0
2022-04-04T02:09:00+09:00,1.7,���k��,4,�k��,8.2,73.3,0,0,0,0
2022-04-04T02:10:00+09:00,1.4,���k��,3.3,���k��,8.3,74.2,0,0,0,0
2022-04-04T02:11:00+09:00,1.3,���k��,3.3,���k��,8.2,74.8,0,0,0,0
2022-04-04T02:12:00+09:00,1,��,2.3,���k��,8.1,74.6,0,0,0,0
2022-04-04T02:13:00+09:00,0.9,��,2.3,���k��,8.3,75.7,0,0,0,0
2022-04-04T02:14:00+09:00,0.8,���k��,2,���k��,8.3,75.8,0,0,0,0
2022-04-04T02:15:00+09:00,0.7,���k��,1.8,���k��,8.2,75.6,0,0,0,0
2022-04-04T02:16:00+09:00,0.6,���k��,1.8,���k��,8.2,75.6,0,0,0,0
2022-04-04T02:17:00+09:00,0.5,���k��,1.6,�k��,8.3,75.7,0,0,0,0
2022-04-04T02:18:00+09:00,0.4,���k��,1.3,���k��,8.2,75.5,0,0,0,0
2022-04-04T02:19:00+09:00,0.4,���k��,1,���k��,8.1,75.3,0,0,0,0
2022-04-04T02:20:00+09:00,0.3,���k��,0.8,�k��,8.1,75.4,0,0,0,0
2022-04-04T02:21:00+09:00,0.3,���k��,0.8,�k��,8,75.4,0,0,0,0
2022-04-04T02:22:00+09:00,0.3,���k��,0.8,�k��,7.9,75.6,0,0,0,0
2022-04-04T02:23:00+09:00,0.3,���k��,0.8,�k��,8,76.3,0,0,0,0
2022-04-04T02:24:00+09:00,0.3,��,0.8,�k��,8,76.6,0,0,0,0
2022-04-04T02:25:00+09:00,0.3,���쓌,0.8,�k��,8.1,76.7,0,0,0,0
2022-04-04T02:26:00+09:00,0.4,���쓌,0.8,�k��,7.9,76.7,0,0,0,0
2022-04-04T02:27:00+09:00,0.4,���쓌,1.4,��쓌,7.8,76.4,0,0,0,0
2022-04-04T02:28:00+09:00,0.5,�쓌,1.6,��쓌,7.4,75.7,0,0,0,0
2022-04-04T02:29:00+09:00,0.6,�쓌,1.9,��,7.5,76.8,0,0,0,0
2022-04-04T02:30:00+09:00,0.7,�쓌,2,���k��,8.1,79.3,0,0,0,0
2022-04-04T02:31:00+09:00,0.8,���쓌,2,���k��,8.1,78.6,0,0,0,0
2022-04-04T02:32:00+09:00,0.9,���쓌,2,���k��,8.2,77.9,0,0,0,0
2022-04-04T02:33:00+09:00,0.9,���쓌,2,���k��,8.2,77.3,0,0,0,0
2022-04-04T02:34:00+09:00,1,��,2,���k��,8.2,76.8,0,0,0,0
2022-04-04T02:35:00+09:00,1,��,2,���k��,8.2,76.2,0,0,0,0
2022-04-04T02:36:00+09:00,1,��,2,���k��,8.3,76.2,0,0,0,0
2022-04-04T02:37:00+09:00,1,���k��,2,���k��,7.8,74.8,0,0,0,0
2022-04-04T02:38:00+09:00,1,���k��,2,���k��,7.6,74.2,0,0,0,0
2022-04-04T02:39:00+09:00,0.9,���k��,2,���k��,7.4,74.8,0,0,0,0
2022-04-04T02:40:00+09:00,0.9,�k��,1.9,���쓌,7.6,76.6,0,0,0,0
2022-04-04T02:41:00+09:00,0.9,�k��,1.9,���쓌,7.5,76.9,0,0,0,0
2022-04-04T02:42:00+09:00,0.9,�k��,1.9,���쓌,7.6,77.5,0,0,0,0
2022-04-04T02:43:00+09:00,0.9,�k��,1.9,���쓌,7.8,78.2,0,0,0,0
2022-04-04T02:44:00+09:00,0.8,�k��,1.4,�k��,7.7,78,0,0,0,0
2022-04-04T02:45:00+09:00,0.8,�k��,1.4,�k��,7.6,77.5,0,0,0,0
2022-04-04T02:46:00+09:00,0.7,�k��,1.4,�k��,7.6,78,0,0,0,0
2022-04-04T02:47:00+09:00,0.7,�k��,1.4,�k��,7.3,77.1,0,0,0,0
2022-04-04T02:48:00+09:00,0.7,�k��,1.7,�k��,6.9,76.8,0,0,0,0
2022-04-04T02:49:00+09:00,0.8,�k��,1.7,�k��,6.7,76.8,0,0,0,0
2022-04-04T02:50:00+09:00,0.7,�k��,1.7,�k��,6.6,78,0,0,0,0
2022-04-04T02:51:00+09:00,0.7,�k��,1.7,�k��,6.6,79.2,0,0,0,0
2022-04-04T02:52:00+09:00,0.6,�k��,1.7,�k��,6.7,80.3,0,0,0,0
2022-04-04T02:53:00+09:00,0.7,�k��,1.7,�k��,6.7,81.3,0,0,0,0
2022-04-04T02:54:00+09:00,0.7,���k��,1.7,�k��,6.7,81.7,0,0,0,0
2022-04-04T02:55:00+09:00,0.7,���k��,1.7,�k��,6.7,82.1,0,0,0,0
2022-04-04T02:56:00+09:00,0.7,���k��,1.7,�k��,6.7,82.4,0,0,0,0
2022-04-04T02:57:00+09:00,0.8,��,1.7,�k��,6.7,82.4,0,0,0,0
2022-04-04T02:58:00+09:00,0.8,��,1.4,�k��,6.7,82.5,0,0,0,0
2022-04-04T02:59:00+09:00,0.7,��,1.2,���쓌,6.7,82.7,0,0,0,0
2022-04-04T03:00:00+09:00,0.8,���쓌,1.2,���쓌,6.6,82.6,0,0,0,0
2022-04-04T03:01:00+09:00,0.9,���쓌,1.7,���쓌,6.5,82.5,0,0,0,0
2022-04-04T03:02:00+09:00,0.9,���쓌,2,���쓌,6.5,82.6,0,0,0,0
2022-04-04T03:03:00+09:00,1,���쓌,2,���쓌,6.3,82.5,0,0,0,0
2022-04-04T03:04:00+09:00,1,���쓌,2,���쓌,6.3,82.6,0,0,0,0
2022-04-04T03:05:00+09:00,1.1,���쓌,2,���쓌,6.2,82.9,0,0,0,0
2022-04-04T03:06:00+09:00,1.1,���쓌,2,���쓌,6.2,83.3,0,0,0,0
2022-04-04T03:07:00+09:00,1.2,���쓌,2,���쓌,6.3,83.7,0,0,0,0
2022-04-04T03:08:00+09:00,1.2,���쓌,2,���쓌,6.3,84.2,0,0,0,0
2022-04-04T03:09:00+09:00,1.2,���쓌,2,���쓌,6.4,84.6,0,0,0,0
2022-04-04T03:10:00+09:00,1.3,���쓌,2,���쓌,6.3,84.6,0,0,0,0
2022-04-04T03:11:00+09:00,1.3,���쓌,2,���쓌,6.3,84.4,0,0,0,0
2022-04-04T03:12:00+09:00,1.3,���쓌,1.9,���쓌,6.4,84.6,0,0,0,0
2022-04-04T03:13:00+09:00,1.3,���쓌,1.9,���쓌,6.3,84.4,0,0,0,0
2022-04-04T03:14:00+09:00,1.4,���쓌,1.9,���쓌,6.2,84.1,0,0,0,0
2022-04-04T03:15:00+09:00,1.4,���쓌,1.9,���쓌,6.2,84.3,0,0,0,0
2022-04-04T03:16:00+09:00,1.5,���쓌,1.9,���쓌,6.2,84.7,0,0,0,0
2022-04-04T03:17:00+09:00,1.5,���쓌,1.9,���쓌,6.1,84.6,0,0,0,0
2022-04-04T03:18:00+09:00,1.5,���쓌,1.9,���쓌,6.1,84.6,0,0,0,0
2022-04-04T03:19:00+09:00,1.5,���쓌,1.9,���쓌,6.2,85.3,0,0,0,0
2022-04-04T03:20:00+09:00,1.4,�쓌,1.9,���쓌,6.5,86.3,0,0,0,0
2022-04-04T03:21:00+09:00,1.4,�쓌,1.9,���쓌,6.4,86,0,0,0,0
2022-04-04T03:22:00+09:00,1.3,�쓌,1.8,�쓌,6.3,85.2,0,0,0,0
2022-04-04T03:23:00+09:00,1.3,���쓌,1.8,�쓌,6.3,85.1,0,0,0,0
2022-04-04T03:24:00+09:00,1.3,���쓌,1.8,�쓌,6.2,84.9,0,0,0,0
2022-04-04T03:25:00+09:00,1.3,���쓌,1.7,���쓌,6.1,84.7,0,0,0,0
2022-04-04T03:26:00+09:00,1.2,�쓌,1.7,���쓌,6.1,84.8,0,0,0,0
2022-04-04T03:27:00+09:00,1.2,�쓌,1.7,���쓌,6,84.9,0,0,0,0
2022-04-04T03:28:00+09:00,1.1,�쓌,1.7,���쓌,6,85,0,0,0,0
2022-04-04T03:29:00+09:00,1,�쓌,1.7,���쓌,6,85.2,0,0,0,0
2022-04-04T03:30:00+09:00,1,�쓌,1.7,���쓌,6,85.2,0,0,0,0
2022-04-04T03:31:00+09:00,0.9,�쓌,1.7,���쓌,6,85.4,0,0,0,0
2022-04-04T03:32:00+09:00,0.9,�쓌,1.7,���쓌,6,85.6,0,0,0,0
2022-04-04T03:33:00+09:00,0.9,�쓌,1.7,���쓌,6.2,86.1,0,0,0,0
2022-04-04T03:34:00+09:00,0.9,�쓌,1.5,�쓌,6.4,86.8,0,0,0,0
2022-04-04T03:35:00+09:00,0.8,�쓌,1.5,�쓌,6.3,86.4,0,0,0,0
2022-04-04T03:36:00+09:00,0.7,���쓌,1.5,�쓌,6,85.4,0,0,0,0
2022-04-04T03:37:00+09:00,0.7,���쓌,1.5,�쓌,5.7,84.2,0,0,0,0
2022-04-04T03:38:00+09:00,0.7,���쓌,1.5,�쓌,5.6,84.5,0,0,0,0
2022-04-04T03:39:00+09:00,0.7,��,1.5,�쓌,5.6,84.9,0,0,0,0
2022-04-04T03:40:00+09:00,0.8,��,1.5,�쓌,5.5,85.2,0,0,0,0
2022-04-04T03:41:00+09:00,0.9,���k��,1.5,�쓌,5.5,85.5,0,0,0,0
2022-04-04T03:42:00+09:00,0.9,���k��,1.5,�쓌,5.4,85.6,0,0,0,0
2022-04-04T03:43:00+09:00,0.9,�k��,1.5,�쓌,5.4,86.1,0,0,0,0
2022-04-04T03:44:00+09:00,0.9,�k��,1.5,�k��,5.4,86.4,0,0,0,0
2022-04-04T03:45:00+09:00,1,�k��,1.5,�k��,5.4,86.7,0,0,0,0
2022-04-04T03:46:00+09:00,1,�k��,2.9,���쓌,5.4,86.9,0,0,0,0
2022-04-04T03:47:00+09:00,1.2,���k��,3.3,���쓌,5.5,87.4,0,0,0,0
2022-04-04T03:48:00+09:00,1.4,���k��,3.3,���쓌,5.6,87.9,0,0,0,0
2022-04-04T03:49:00+09:00,1.5,���k��,3.3,���쓌,5.6,87.8,0,0,0,0
2022-04-04T03:50:00+09:00,1.6,���k��,3.3,���쓌,5.7,87.9,0,0,0,0
2022-04-04T03:51:00+09:00,1.6,��,3.3,���쓌,5.6,87.8,0,0,0,0
2022-04-04T03:52:00+09:00,1.5,��,3.3,���쓌,5.5,87.5,0,0,0,0
2022-04-04T03:53:00+09:00,1.5,��,3.3,���쓌,5.4,86.9,0,0,0,0
2022-04-04T03:54:00+09:00,1.4,��,3.3,���쓌,5.3,87.3,0,0,0,0
2022-04-04T03:55:00+09:00,1.4,��,3.3,���쓌,5.2,87.2,0,0,0,0
2022-04-04T03:56:00+09:00,1.3,��,3.3,���쓌,5.2,87.3,0,0,0,0
2022-04-04T03:57:00+09:00,1,��,2.8,���쓌,5.3,87.7,0,0,0,0
2022-04-04T03:58:00+09:00,0.8,��,2.3,��,5.3,88.2,0,0,0,0
2022-04-04T03:59:00+09:00,0.6,���k��,2.3,��,5.2,87.9,0,0,0,0
2022-04-04T04:00:00+09:00,0.5,���k��,1.7,��,5.2,88,0,0,0,0
2022-04-04T04:01:00+09:00,0.5,���k��,1,���k��,5.2,88.3,0,0,0,0
2022-04-04T04:02:00+09:00,0.5,���k��,1,���k��,5.2,88.5,0,0,0,0
2022-04-04T04:03:00+09:00,0.5,���k��,1,��,5.3,88.8,0,0,0,0
2022-04-04T04:04:00+09:00,0.5,���k��,1.2,���쓌,5.3,88.9,0,0,0,0
2022-04-04T04:05:00+09:00,0.6,��,1.8,���쓌,5.3,89.2,0,0,0,0
2022-04-04T04:06:00+09:00,0.7,��,2,���쓌,5.3,89.2,0,0,0,0
2022-04-04T04:07:00+09:00,0.9,��,2,���쓌,5.4,89.2,0,0,0,0
2022-04-04T04:08:00+09:00,1,��,2,���쓌,5.4,89.3,0,0,0,0
2022-04-04T04:09:00+09:00,1.1,��,2,���쓌,5.4,89.3,0,0,0,0
2022-04-04T04:10:00+09:00,1.2,���쓌,2,���쓌,5.4,89.4,0,0,0,0
2022-04-04T04:11:00+09:00,1.2,���쓌,2,���쓌,5.5,89.5,0,0,0,0
2022-04-04T04:12:00+09:00,1.3,���쓌,2,���쓌,5.4,89.3,0,0,0,0
2022-04-04T04:13:00+09:00,1.4,���쓌,2,���쓌,5.5,89.4,0,0,0,0
2022-04-04T04:14:00+09:00,1.5,���쓌,2,���쓌,5.5,89.3,0,0,0,0
2022-04-04T04:15:00+09:00,1.5,���쓌,2,���쓌,5.4,89.2,0,0,0,0
2022-04-04T04:16:00+09:00,1.4,���쓌,2,��,5.4,89,0,0,0,0
2022-04-04T04:17:00+09:00,1.3,��,2,��,5.3,89,0,0,0,0
2022-04-04T04:18:00+09:00,1.2,��,2,��,5.2,88.4,0,0,0,0
2022-04-04T04:19:00+09:00,1.1,��,2,��,5.1,88.5,0,0,0,0
2022-04-04T04:20:00+09:00,1.1,��,2,��,5.3,89.2,0,0,0,0
2022-04-04T04:21:00+09:00,1.1,��,2,��,5.4,89.7,0,0,0,0
2022-04-04T04:22:00+09:00,1,��,2,��,5.1,88.8,0,0,0,0
2022-04-04T04:23:00+09:00,0.9,��,2,��,5,88.4,0,0,0,0
2022-04-04T04:24:00+09:00,0.8,��,1.5,��,5,88.8,0,0,0,0
2022-04-04T04:25:00+09:00,0.8,��,1.5,��,5,88.8,0,0,0,0
2022-04-04T04:26:00+09:00,0.9,��,1.6,��,4.9,88.7,0,0,0,0
2022-04-04T04:27:00+09:00,1,��,1.8,���쓌,4.8,88.7,0,0,0,0
2022-04-04T04:28:00+09:00,1,��,1.8,���쓌,4.8,88.6,0,0,0,0
2022-04-04T04:29:00+09:00,1.1,��,1.8,���쓌,4.7,88.7,0,0,0,0
2022-04-04T04:30:00+09:00,1.2,��,2,��,4.8,89.1,0,0,0,0
2022-04-04T04:31:00+09:00,1.3,��,2.1,��,4.9,89.9,0,0,0,0
2022-04-04T04:32:00+09:00,1.4,��,2.3,��,4.8,89.7,0,0,0,0
2022-04-04T04:33:00+09:00,1.5,���쓌,2.3,��,4.8,89.5,0,0,0,0
2022-04-04T04:34:00+09:00,1.7,���쓌,2.6,��,4.7,89.4,0,0,0,0
2022-04-04T04:35:00+09:00,1.8,���쓌,2.6,��,4.8,89.7,0,0,0,0
2022-04-04T04:36:00+09:00,1.9,���쓌,2.6,��,4.9,90.2,0,0,0,0
2022-04-04T04:37:00+09:00,1.9,��,2.6,��,4.9,90.3,0,0,0,0
2022-04-04T04:38:00+09:00,1.9,��,2.6,��,5.1,90.7,0,0,0,0
2022-04-04T04:39:00+09:00,1.9,��,2.6,��,5.1,90.8,0,0,0,0
2022-04-04T04:40:00+09:00,1.8,��,2.6,��,5,90.2,0,0,0,0
2022-04-04T04:41:00+09:00,1.7,��,2.6,��,5,90,0,0,0,0
2022-04-04T04:42:00+09:00,1.7,��,2.6,��,4.9,89.9,0,0,0,0
2022-04-04T04:43:00+09:00,1.6,��,2.6,��,4.9,89.7,0,0,0,0
2022-04-04T04:44:00+09:00,1.5,��,2.6,��,4.8,89.6,0,0,0,0
2022-04-04T04:45:00+09:00,1.3,��,2.6,��,4.8,89.6,0,0,0,0
2022-04-04T04:46:00+09:00,1.2,��,2.4,���쓌,4.9,90.2,0,0,0,0
2022-04-04T04:47:00+09:00,1.1,��,2,��,4.9,90.1,0,0,0,0
2022-04-04T04:48:00+09:00,1.1,��,2,��,4.9,90.2,0,0,0,0
2022-04-04T04:49:00+09:00,1.1,��,2,��,4.9,90.2,0,0,0,0
2022-04-04T04:50:00+09:00,1.1,��,2,��,4.9,90.2,0,0,0,0
2022-04-04T04:51:00+09:00,1.1,��,2,��,4.9,90.5,0,0,0,0
2022-04-04T04:52:00+09:00,1,��,2,���k��,4.8,90.1,0,0,0,0
2022-04-04T04:53:00+09:00,1,��,2,���k��,4.7,89.8,0,0,0,0
2022-04-04T04:54:00+09:00,1,��,2,���k��,4.7,90,0,0,0,0
2022-04-04T04:55:00+09:00,1,��,2,���k��,4.8,90.4,0,0,0,0
2022-04-04T04:56:00+09:00,1,��,2,���k��,4.6,90.1,0,0,0,0
2022-04-04T04:57:00+09:00,1,��,2,���k��,4.6,89.7,0,0,0,0
2022-04-04T04:58:00+09:00,0.9,��,1.8,���쓌,4.7,90.4,0,0,0,0
2022-04-04T04:59:00+09:00,0.9,��,1.8,���쓌,4.7,90.6,0,0,0,0
2022-04-04T05:00:00+09:00,1,��,1.8,���쓌,4.7,90.6,0,0,0,0
2022-04-04T05:01:00+09:00,1.1,��,2.2,��,4.7,90.7,0,0,0,0
2022-04-04T05:02:00+09:00,1.2,��,2.2,��,4.7,90.7,0,0,0,0
2022-04-04T05:03:00+09:00,1.2,��,2.2,��,4.6,90.6,0,0,0,0
2022-04-04T05:04:00+09:00,1.3,��,2.2,��,4.6,90.4,0,0,0,0
2022-04-04T05:05:00+09:00,1.4,���쓌,2.5,���쓌,4.6,90.7,0,0,0,0
2022-04-04T05:06:00+09:00,1.5,���쓌,2.5,���쓌,4.5,90.6,0,0,0,0
2022-04-04T05:07:00+09:00,1.7,���쓌,2.9,���쓌,4.5,90.5,0,0,0,0
2022-04-04T05:08:00+09:00,1.8,���쓌,2.9,���쓌,4.6,90.9,0,0,0,0
2022-04-04T05:09:00+09:00,1.9,���쓌,2.9,���쓌,4.6,91.2,0,0,0,0
2022-04-04T05:10:00+09:00,2,���쓌,3,���쓌,4.7,91.2,0,0,0,0
2022-04-04T05:11:00+09:00,2,���쓌,3,���쓌,4.7,91.5,0,0,0,0
2022-04-04T05:12:00+09:00,2,���쓌,3,���쓌,4.7,91.3,0,0,0,0
2022-04-04T05:13:00+09:00,2,���쓌,3,���쓌,4.7,91.3,0,0,0,0
2022-04-04T05:14:00+09:00,2,���쓌,3,���쓌,4.8,91.4,0,0,0,0
2022-04-04T05:15:00+09:00,1.9,���쓌,3,���쓌,4.7,91.4,0,0,0,0
2022-04-04T05:16:00+09:00,1.9,���쓌,3,���쓌,4.7,91.2,0,0,0,0
2022-04-04T05:17:00+09:00,1.8,���쓌,3,���쓌,4.7,91.2,0,0,0,0
2022-04-04T05:18:00+09:00,1.6,���쓌,3,���쓌,4.7,91.2,0,0,0,0
2022-04-04T05:19:00+09:00,1.4,���쓌,3,���쓌,4.6,91,0,0,0,0
2022-04-04T05:20:00+09:00,1.2,��,2.7,���쓌,4.4,90.4,0,0,0,0
2022-04-04T05:21:00+09:00,1,��,2.3,���쓌,4.3,89.9,0,0,0,0
2022-04-04T05:22:00+09:00,0.9,��,1.8,��,4.3,90.3,0,0,0,0
2022-04-04T05:23:00+09:00,0.8,��,1.8,��,4.4,90.9,0,0,0,0
2022-04-04T05:24:00+09:00,0.8,��,1.5,��,4.5,91.4,0,0,0,0
2022-04-04T05:25:00+09:00,0.7,��,1.5,��,4.5,91.5,0,0,0,0
2022-04-04T05:26:00+09:00,0.7,��,1.5,��,4.5,91.3,0,0,0,0
2022-04-04T05:27:00+09:00,0.6,��,1.4,��,4.4,91.1,0,0,0,0
2022-04-04T05:28:00+09:00,0.6,��,1.4,��,4.6,91.4,0,0,0,0
2022-04-04T05:29:00+09:00,0.6,��,1.4,��,4.7,92.2,0,0,0,0
2022-04-04T05:30:00+09:00,0.6,��,1.4,��,4.4,90.9,0,0,0,0
2022-04-04T05:31:00+09:00,0.6,��,1.4,��,4.4,90.8,0,0,0,0
2022-04-04T05:32:00+09:00,0.6,��,1.4,��,4.3,90.9,0,0,0,0
2022-04-04T05:33:00+09:00,0.6,��,1.4,��,4.3,90.7,0,0,0,0
2022-04-04T05:34:00+09:00,0.5,��,1.4,��,4.3,90.9,0,0,0,0
2022-04-04T05:35:00+09:00,0.5,��,1.4,��,4.4,91.2,0,0,0,0
2022-04-04T05:36:00+09:00,0.5,��,1.2,���쓌,4.4,91.5,0,0,0,0
2022-04-04T05:37:00+09:00,0.5,��,1.2,���쓌,4.4,91.1,0,0,0,0
2022-04-04T05:38:00+09:00,0.5,��,1.2,���쓌,4.3,91,0,0,0,0
2022-04-04T05:39:00+09:00,0.6,��,1.3,���k��,4.2,90.8,0,0,0,0
2022-04-04T05:40:00+09:00,0.6,��,1.6,���쓌,4.3,90.9,0,0,0,0
2022-04-04T05:41:00+09:00,0.7,��,1.6,���쓌,4.2,90.8,0,0,0,0
2022-04-04T05:42:00+09:00,0.8,��,1.6,���쓌,4.1,90.7,0,0,0,0
2022-04-04T05:43:00+09:00,0.9,��,1.7,���쓌,4.1,90.8,0,0,0,0
2022-04-04T05:44:00+09:00,1,��,1.7,���쓌,4.1,90.8,0,0,0,0
2022-04-04T05:45:00+09:00,1,��,1.7,���쓌,4.1,90.7,0,0,0,0
2022-04-04T05:46:00+09:00,1.1,���쓌,1.7,���쓌,4.1,91.2,0,0,0,0
2022-04-04T05:47:00+09:00,1.1,���쓌,1.7,���쓌,4.2,91.2,0,0,0,0
2022-04-04T05:48:00+09:00,1.2,���쓌,1.7,���쓌,4.1,91.3,0,0,0,0
2022-04-04T05:49:00+09:00,1.3,���쓌,1.7,���쓌,4.3,91.7,0,0,0,0
2022-04-04T05:50:00+09:00,1.3,���쓌,1.7,���쓌,4.3,91.7,0,0,0,0
2022-04-04T05:51:00+09:00,1.3,���쓌,1.7,���쓌,4.3,91.8,0,0,0,0
2022-04-04T05:52:00+09:00,1.3,���쓌,1.7,���쓌,4.3,91.8,0,0,0,0
2022-04-04T05:53:00+09:00,1.3,���쓌,1.7,���쓌,4.3,91.6,0,0,0,0
2022-04-04T05:54:00+09:00,1.3,���쓌,1.9,��,4.3,91.6,0,0,0,0
2022-04-04T05:55:00+09:00,1.4,���쓌,1.9,��,4.3,91.8,0,0,0,0
2022-04-04T05:56:00+09:00,1.4,���쓌,1.9,��,4.3,91.5,0,0,0,0
2022-04-04T05:57:00+09:00,1.4,���쓌,1.9,��,4.3,91.6,0,0,0,0
2022-04-04T05:58:00+09:00,1.4,���쓌,1.9,��,4.3,91.5,0,0,0,0
2022-04-04T05:59:00+09:00,1.3,���쓌,1.9,��,4.3,91.3,0,0,0,0
2022-04-04T06:00:00+09:00,1.2,���쓌,1.9,��,4.3,91.5,0,0,0,0
2022-04-04T06:01:00+09:00,1.2,���쓌,1.9,��,4.3,91.6,0,0,0,0
2022-04-04T06:02:00+09:00,1.2,���쓌,1.9,��,4.3,91.5,0,0,0,0
2022-04-04T06:03:00+09:00,1.1,���쓌,1.9,��,4.3,91.4,0,0,0,0
2022-04-04T06:04:00+09:00,1,��,1.9,���쓌,4.1,91.2,0,0,0,0
2022-04-04T06:05:00+09:00,0.9,��,1.9,���쓌,3.9,90.6,0,0,0,0
2022-04-04T06:06:00+09:00,0.8,��,1.4,���쓌,3.9,90.8,0,0,0,0
2022-04-04T06:07:00+09:00,0.7,��,1.4,���쓌,3.8,90.9,0,0,0,0
2022-04-04T06:08:00+09:00,0.7,��,1.4,���쓌,3.9,90.9,0,0,0,0
2022-04-04T06:09:00+09:00,0.8,��,1.4,���쓌,4,91.7,0,0,0,0
2022-04-04T06:10:00+09:00,0.8,��,1.4,���쓌,4.1,91.9,0,0,0,0
2022-04-04T06:11:00+09:00,0.7,��,1.4,���쓌,4.1,91.9,0,0,0,0
2022-04-04T06:12:00+09:00,0.7,��,1.3,�쓌,4.1,91.7,0,0,0,0
2022-04-04T06:13:00+09:00,0.6,���쓌,1.3,�쓌,4.2,91.8,0,0,0,0
2022-04-04T06:14:00+09:00,0.7,���쓌,1.3,�쓌,4.2,92.1,0,0,0,0
2022-04-04T06:15:00+09:00,0.7,���쓌,1.3,�쓌,4.2,91.9,0,0,0,0
2022-04-04T06:16:00+09:00,0.7,���쓌,1.3,�쓌,4.1,91.7,0,0,0,0
2022-04-04T06:17:00+09:00,0.6,���쓌,1.3,�쓌,4.2,91.7,0,0,0,0
2022-04-04T06:18:00+09:00,0.6,���쓌,1.3,�쓌,4.1,91.5,0,0,0,0
2022-04-04T06:19:00+09:00,,,,,,,,,,
2022-04-04T06:20:00+09:00,0.5,���쓌,0.9,��쓌,4.2,91.7,0,0,0,0
2022-04-04T06:21:00+09:00,0.4,���쓌,0.9,��쓌,4.3,92,0,0,0,0
2022-04-04T06:22:00+09:00,0.4,���쓌,1,���쓌,4.2,91.8,0,0,0,0
2022-04-04T06:23:00+09:00,0.5,���쓌,1.8,���쓌,4.2,91.4,0,0,0,0
2022-04-04T06:24:00+09:00,0.6,��,1.8,���쓌,4.2,91.5,0,0,0,0
2022-04-04T06:25:00+09:00,0.7,��,1.8,���쓌,4.3,91.8,0,0,0,0
2022-04-04T06:26:00+09:00,0.8,��,1.8,���쓌,4.2,91.8,0,0,0,0
2022-04-04T06:27:00+09:00,0.9,���쓌,1.8,���쓌,4.3,91.9,0,0,0,0
2022-04-04T06:28:00+09:00,1,���쓌,1.8,���쓌,4.4,92.2,0,0,0,0
2022-04-04T06:29:00+09:00,1,���쓌,1.8,���쓌,4.5,92.2,0,0,0,0
2022-04-04T06:30:00+09:00,1.1,���쓌,1.8,���쓌,4.4,91.9,0,0,0,0
2022-04-04T06:31:00+09:00,1.2,���쓌,1.8,���쓌,4.4,91.7,0,0,0,0
2022-04-04T06:32:00+09:00,1.2,���쓌,1.8,���쓌,4.4,91.6,0,0,0,0
2022-04-04T06:33:00+09:00,1.2,���쓌,1.7,���쓌,4.4,91.7,0,0,0,0
2022-04-04T06:34:00+09:00,1,��,1.5,��,4.3,91.4,0,0,0,0
2022-04-04T06:35:00+09:00,1,��,1.5,��,4.1,90.9,0,0,0,0
2022-04-04T06:36:00+09:00,0.9,��,1.5,��,4.2,91.1,0,0,0,0
2022-04-04T06:37:00+09:00,0.9,��,1.5,��,4.2,91.4,0,0,0,0
2022-04-04T06:38:00+09:00,0.8,��,1.5,��,4.3,91.6,0,0,0,0
2022-04-04T06:39:00+09:00,0.9,��,1.6,���쓌,4.3,91.5,0,0,0,0
2022-04-04T06:40:00+09:00,0.9,��,1.6,���쓌,4.3,91.7,0,0,0,0